User: anonymous   Login
Location: Unspecified
(0.0000°N, 0.0000°E)
Time: 00:35:54
(UTC+00:00)
Language:

OPTUS D1 - Orbit

View from above orbital plane
View from above orbital plane
View from above satellite
View from above satellite

Ground track
Ground track

The orbit data is extracted from the following two-line orbital elements,

1 29495U 06043B   17350.47549118 -.00000106  00000-0  00000+0 0  9994
2 29495   0.0204   3.7216 0003109 263.4183 149.3248  1.00270546 41018
Epoch (UTC): 16 December 2017 11:24:42
Eccentricity: 0.0003109
inclination: 0.0204°
perigee height: 35773 km
apogee height: 35799 km
right ascension of ascending node: 3.7216°
argument of perigee: 263.4183°
revolutions per day: 1.00270546
mean anomaly at epoch: 149.3248°
orbit number at epoch: 4101

The dashed part of the orbit path shows where the satellite is in the earth's shadow,  

DLR